Dar es Salaam, Tanzania

12:07 PM EAT on May 26, 2018 (GMT +0300)
Dar es Salaam

Weather History for 63894 - December, 2012

Change the Weather History Date:

Monday, December 10, 2012

  Actual Average Record
Temperature  
Mean Temperature 86 °F -  
Max Temperature 93 °F 84 °F - ()
Min Temperature 78 °F 76 °F - ()
Cooling Degree Days 20    
Growing Degree Days 36 (Base 50)    
Moisture  
Dew Point 76 °F    
Average Humidity 75    
Maximum Humidity 94    
Minimum Humidity 49    
Precipitation  
Precipitation 0.00 in 0.14 in - ()
Sea Level Pressure  
Sea Level Pressure 29.79 in    
Wind  
Wind Speed 10 mph ()    
Max Wind Speed 17 mph    
Max Gust Speed -    
Visibility 9.9 miles    
Events      
T = Trace of Precipitation, MM = Missing Value Source: Averaged Metar Reports

Daily Weather History Graph

Daily Weather History Graph

Search for Another Location

Airport or City:

Astronomy

Dec. 10, 2012 Rise Set
Actual Time 6:00 AM EAT 6:31 PM EAT
Civil Twilight 5:37 AM EAT 6:54 PM EAT
Nautical Twilight 5:11 AM EAT 7:20 PM EAT
Astronomical Twilight 4:44 AM EAT 7:47 PM EAT
Moon 2:54 AM EAT (12/10) 3:36 PM EAT (12/10)
Length of Visible Light 13h 16m
Length of Day
12h 30m
Waning Crescent, 13% of the Moon is Illuminated
Dec 10
Waning Crescent
Dec 13
New
Dec 20
First Quarter
Dec 28
Full
Jan 5
Last Quarter

Hourly Weather History & Observations

Time (EAT) Temp. Heat Index Dew Point Humidity Pressure Visibility Wind Dir Wind Speed Gust Speed Precip Events Conditions
12:00 AM 80 °F - 75 °F 81% 29.81 in 19 mi NE 9.2 mph - -   Partly Cloudy
12:00 AM 80.6 °F 86.2 °F 75.2 °F 84% - 6.2 mi NE 9.2 mph - N/A   Scattered Clouds
1:00 AM 78.8 °F - 75.2 °F 89% - 6.2 mi NNE 6.9 mph - N/A   Partly Cloudy
2:00 AM 78.8 °F - 75.2 °F 89% - 6.2 mi NNE 5.8 mph - N/A   Partly Cloudy
3:00 AM 79 °F - 75 °F 85% 29.79 in 19 mi North 5.8 mph - -   Scattered Clouds
3:00 AM 78.8 °F - 75.2 °F 89% - 6.2 mi North 5.8 mph - N/A   Partly Cloudy
4:00 AM 78.8 °F - 75.2 °F 89% 29.77 in 6.2 mi NNE 6.9 mph - N/A   Partly Cloudy
6:00 AM 78.8 °F - 77.0 °F 94% 29.80 in 6.2 mi NNE 5.8 mph - N/A   Scattered Clouds
8:00 AM 84.2 °F 92.3 °F 75.2 °F 74% 29.83 in 6.2 mi NE 17.3 mph - N/A   Scattered Clouds
9:00 AM 86 °F - 75 °F 62% 29.86 in 19 mi NNE 13.8 mph - -   Mostly Cloudy
9:00 AM 86.0 °F 95.1 °F 75.2 °F 70% 29.86 in 6.2 mi NNE 13.8 mph - N/A   Mostly Cloudy
10:00 AM 87.8 °F 97.6 °F 75.2 °F 66% 29.83 in 6.2 mi NNE 15.0 mph - N/A   Mostly Cloudy
11:00 AM 89.6 °F 102.2 °F 77.0 °F 66% 29.83 in 6.2 mi NNE 11.5 mph - N/A   Mostly Cloudy
12:00 PM 91 °F - 74 °F 49% 29.81 in 19 mi North 17.3 mph - -   Mostly Cloudy
12:00 PM 91.4 °F 100.1 °F 73.4 °F 55% 29.80 in 6.2 mi North 17.3 mph - N/A   Mostly Cloudy
1:00 PM 89.6 °F 99.8 °F 75.2 °F 62% 29.77 in 6.2 mi North 13.8 mph - N/A   Mostly Cloudy
2:00 PM 89.6 °F 99.8 °F 75.2 °F 62% 29.74 in 6.2 mi NE 13.8 mph - N/A   Mostly Cloudy
3:00 PM 90 °F - 77 °F 58% 29.73 in 19 mi NE 17.3 mph - -   Partly Cloudy
3:00 PM 89.6 °F 102.2 °F 77.0 °F 66% 29.71 in 6.2 mi NE 17.3 mph - N/A   Scattered Clouds
6:00 PM 84 °F - 77 °F 73% 29.71 in 19 mi ENE 13.8 mph - -   Partly Cloudy
8:00 PM 82.4 °F 90.9 °F 77.0 °F 84% 29.74 in 6.2 mi NE 15.0 mph - N/A   Mostly Cloudy
9:00 PM 83 °F - 78 °F 80% 29.78 in 19 mi NE 12.7 mph - -   Mostly Cloudy
9:00 PM 82.4 °F 92.4 °F 78.8 °F 89% 29.77 in 6.2 mi NE 12.7 mph - N/A   Mostly Cloudy
10:00 PM 82.4 °F 92.4 °F 78.8 °F 89% 29.80 in 6.2 mi NE 10.4 mph - N/A   Mostly Cloudy